{"data":{"norad_id":53468,"intl_designator":"2022-099D","name":"STARLINK-4400","alt_names":[],"object_type":"PAYLOAD","status":"ACTIVE","operator":null,"country":"US","launch_date":"2022-08-12","launch_site_code":"AFWTR","launch_vehicle":null,"mission":null,"orbit_class":"UNKNOWN","rcs_meters":null,"size_class":null,"mass_kg":null,"dimensions":null,"purposes":["comms"],"wikipedia_slug":null,"has_3d_model":false,"image_url":null,"decayed_at":null,"tle_current":{"epoch":"2026-05-25T01:13:17.602752Z","epoch_age_seconds":67347,"freshness":"FRESH","line1":"1 53468U 22099D   26145.05089818  .00001538  00000+0  11064-3 0  9996","line2":"2 53468  97.4467 265.0256 0001222 115.1488 244.9866 15.05644193207462","mean_motion":15.05644193,"eccentricity":0.0001222,"inclination_deg":97.4467,"raan_deg":265.0256,"arg_perigee_deg":115.1488,"mean_anomaly_deg":244.9866,"bstar":0.00011064,"rev_number":20746,"period_min":95.640125781032,"perigee_km":548.68240571204,"apogee_km":550.37552727425,"semimajor_km":6927.6659664931,"source":"CELESTRAK","updated_at":"2026-05-25T13:38:17.408716Z"}}}